Location: Krasnoyarskiy Pitomnik
(51.1333°N, 71.6167°E)
Time: 00:22:04
(UTC+00:00)

NOSS 2-2 (C) - Pass Details

Date: 01 June 2022
Orbit: 439 x 1763 km, 63.3° (Epoch: 02 June)

Event Time Altitude Azimuth Distance (km) Brightness Sun altitude
Rises 19:45:49 0° 304° (WNW) 3,131 7.5 -16.3°
Reaches altitude 10° 19:48:32 10° 286° (WNW) 2,404 6.7 -16.3°
Maximum altitude 19:52:25 19° 242° (WSW) 2,090 5.9 -16.2°
Enters shadow 19:54:03 18° 223° (SW) 2,291 6.0 -16.1°
